[[{"header":{"parameterUnit":"m.s-1","parameterCategory":1,"la1":30.2991,"la2":30.254,"lo1":-89.0895,"lo2":-89.0444,"dy":0.0017,"dx":0.0017,"nx":28,"ny":28,"refTime":"2023-08-09T21:00:00:Z","depth":0,"parameterNumber":2,"parameterNumberName":"U-component_of_WINDS"},"data":[0,0,0,0,0,0,0,0,0,0,0,0,0,0,0,0,0,0,0,0,0,0,0,0,0,0,0,0,0,0,0,0,0,0,0,0,0,0,0,0,0,0,0,0,0,0,0,0,0,0,0,0,0,0,0,0,0,0,5.504,5.5042,0,5.5187,5.5189,5.5191,5.513,5.5126,5.5123,5.5119,5.5269,5.5276,5.5283,0,0,0,0,0,0,0,0,0,0,0,0,0,5.4701,5.4708,5.504,5.5042,5.5044,5.5187,5.5189,5.5191,5.513,5.5126,5.5122,5.5118,5.5266,5.5275,5.5283,0,0,0,0,0,0,0,0,0,0,0,0,0,5.4849,5.471,5.504,5.5031,5.5031,5.5187,5.5189,5.5192,5.5131,5.5126,5.5121,5.5116,5.5263,5.5274,5.5285,5.5457,0,0,5.5318,5.5322,0,0,0,0,0,0,0,0,5.484,5.4861,5.503,5.5032,5.5033,5.5135,5.5124,5.5281,5.5133,5.5093,5.5119,5.5113,5.5228,5.5242,5.5281,5.5464,5.547,5.5319,5.5325,5.533,5.5333,0,0,0,0,0,0,0,5.483,5.4854,5.5098,5.5033,5.5034,5.5018,5.5033,5.5154,5.5188,5.5096,5.5092,5.5111,5.5228,5.527,5.5284,5.5473,5.5318,5.5328,5.5335,5.5339,5.58,5.5805,0,0,0,0,0,0,5.482,5.4846,5.5093,5.5103,5.4922,5.5028,5.5045,5.5107,5.5187,5.5194,5.5115,5.5107,5.5254,5.5271,5.5289,5.5492,5.533,5.534,5.5346,5.5794,5.5801,5.5807,0,0,0,0,0,0,5.4813,5.4843,5.5088,5.4973,5.5003,5.504,5.511,5.5113,5.5155,5.5201,5.5207,5.5152,5.5251,5.5274,5.5415,5.5497,5.5345,5.5355,5.5787,5.5796,5.5804,5.5903,0,0,0,0,0,0,5.4804,5.4841,5.4908,5.4975,5.501,5.5213,5.5115,5.512,5.5175,5.5166,5.5238,5.5244,5.5249,5.5399,5.5426,5.5509,5.5363,5.578,5.5791,5.5801,5.5893,5.5914,5.5932,0,0,0,0,0,5.4792,5.493,5.4912,5.4942,5.5094,5.5218,5.5237,5.5239,5.5182,5.5248,5.5277,5.5242,5.5484,5.5414,5.5443,5.5531,5.5775,5.5788,5.5801,5.5884,5.591,5.5932,0,0,0,0,0,0,5.4872,5.4939,5.4919,5.5084,5.5145,5.5207,5.5291,5.5268,5.5346,5.5335,5.5334,5.5351,5.5496,5.5528,5.5449,5.57,5.562,5.564,5.5674,5.5699,5.5718,5.5706,5.5372,0,0,0,0,0,5.4908,5.5004,5.5057,5.5197,5.5229,5.5255,5.5309,5.5305,5.5369,5.5394,5.5433,5.5496,5.5585,5.5644,5.5729,5.5898,5.591,5.5973,5.5992,5.6008,5.6024,5.6112,5.6139,5.585,5.5849,5.5849,0,0,5.4985,5.5034,5.5094,5.5214,5.5262,5.5358,5.5277,5.5384,5.5455,5.541,5.5545,5.5576,5.5645,5.5799,5.587,5.5831,5.6107,5.6025,5.6037,5.6045,5.6128,5.6155,5.6179,5.5858,5.5857,5.5855,0,0,5.5174,5.5222,5.5342,5.539,5.5463,5.5479,5.5508,5.5573,5.5591,5.5727,5.5694,5.5778,5.5933,5.5983,5.6028,5.6233,5.6202,5.6261,5.6363,5.6448,5.6471,5.6491,5.6561,5.6586,5.6277,5.6277,5.6277,0,5.526,5.5405,5.5406,5.5515,5.5567,5.5531,5.5651,5.5698,5.5794,5.583,5.5786,5.5978,5.6022,5.6186,5.6235,5.6275,5.6305,5.6251,5.6468,5.6488,5.6507,5.6573,5.6599,5.6283,5.6283,5.6282,5.6282,0,5.5505,5.5607,5.5695,5.5788,5.5851,5.5965,5.5981,5.6044,5.6034,5.6054,5.6191,5.6242,5.6335,5.6375,5.6367,5.6536,5.6509,5.6467,5.6386,5.6541,5.6602,5.6628,5.6293,5.629,5.6288,5.6287,0,0,5.5748,5.5839,5.5871,5.5911,5.5988,5.6065,5.6176,5.6267,5.6319,5.6387,5.6478,5.6609,5.6569,5.6621,5.6618,5.6693,5.6847,5.6641,5.6642,5.6674,5.7032,5.7061,5.7091,5.6828,5.6833,5.6837,5.7025,0,5.594,5.6135,5.6138,5.6316,5.6407,5.6373,5.6469,5.6525,5.6547,5.6626,5.6649,5.6741,5.6683,5.6713,5.6786,5.6813,5.6918,5.68,5.691,5.6914,5.6891,5.7124,5.7156,5.7331,5.705,5.7054,5.7057,0,5.619,5.6264,5.6451,5.6511,5.6549,5.6636,5.6717,5.6795,5.6857,5.6866,5.6923,5.6908,5.7019,5.6937,5.7087,5.7006,5.7051,5.7071,5.7078,5.7086,5.6993,5.7135,5.7387,5.7412,5.7096,5.7093,5.709,0,5.6343,5.6491,5.662,5.6656,5.6731,5.6791,5.6825,5.6881,5.6935,5.7006,5.704,5.7124,5.7169,5.7233,5.724,5.7181,5.7391,5.731,5.7399,5.7399,5.7443,5.7439,5.7702,5.7478,5.7477,5.7477,5.7476,0,5.6555,5.667,5.669,5.677,5.6896,5.6898,5.7023,5.7051,5.7101,5.7184,5.716,5.7238,5.7245,5.7324,5.7331,5.7452,5.7474,5.7483,5.7483,5.7483,5.7482,5.7511,5.7497,5.7484,5.7482,5.7481,5.748,0,5.6748,5.6766,5.6905,5.6963,5.698,5.707,5.7119,5.7194,5.7212,5.7317,5.7341,5.737,5.7462,5.7476,5.7585,5.7589,5.7733,5.7722,5.7712,5.771,5.7797,5.7787,5.8085,5.8122,5.7877,5.7879,5.7881,0,5.688,5.6968,5.7034,5.7088,5.7124,5.7212,5.7266,5.727,5.7327,5.7402,5.7467,5.7557,5.7628,5.7777,5.7806,5.7888,5.7877,5.7976,5.7889,5.7885,5.7874,5.7867,5.7874,5.7991,5.7994,5.7996,5.7998,0,5.7112,5.7116,5.7195,5.7277,5.7342,5.7406,5.7467,5.7512,5.7524,5.7589,5.7682,5.7738,5.7848,5.7936,5.8017,5.8049,5.8025,5.8025,5.805,5.8049,5.8038,5.8041,5.7754,5.8018,5.8016,5.8014,5.8013,5.8013,5.7276,5.7351,5.7408,5.7496,5.7542,5.7599,5.7671,5.7697,5.7776,5.7865,5.7863,5.7965,5.8021,5.8127,5.8165,5.8243,5.8211,5.8247,5.8256,5.8264,5.827,5.8029,5.8259,5.8258,5.8258,5.8257,5.8257,0,5.7504,5.7539,5.762,5.7704,5.7773,5.7745,5.781,5.7868,5.7958,5.8013,5.8084,5.8189,5.8274,5.831,5.8392,5.8448,5.8438,5.8469,5.8463,5.847,5.8297,5.8265,5.8475,5.8475,5.8475,5.8475,5.8475,5.8475,5.763,5.7753,5.7763,5.7908,5.7942,5.8041,5.808,5.8131,5.8175,5.8294,5.8364,5.8387,5.8433,5.8518,5.8593,5.8601,5.8631,5.8666,5.8669,5.8505,5.8483,5.8462,5.8432,5.8674,5.8674,5.8835,5.8837,5.8838]},{"header":{"parameterUnit":"m.s-1","parameterCategory":1,"la1":30.2991,"la2":30.254,"lo1":-89.0895,"lo2":-89.0444,"dy":0.0017,"dx":0.0017,"nx":28,"ny":28,"refTime":"2023-08-09T21:00:00:Z","depth":0,"parameterNumber":3,"parameterNumberName":"V-component_of_WINDS"},"data":[0,0,0,0,0,0,0,0,0,0,0,0,0,0,0,0,0,0,0,0,0,0,0,0,0,0,0,0,0,0,0,0,0,0,0,0,0,0,0,0,0,0,0,0,0,0,0,0,0,0,0,0,0,0,0,0,0,0,2.3826,2.3827,0,2.388,2.3881,2.3881,2.385,2.3849,2.3847,2.3846,2.3901,2.3904,2.3907,0,0,0,0,0,0,0,0,0,0,0,0,0,2.3696,2.3699,2.3826,2.3827,2.3828,2.388,2.3881,2.3881,2.3851,2.3849,2.3847,2.3845,2.39,2.3904,2.3907,0,0,0,0,0,0,0,0,0,0,0,0,0,2.3752,2.37,2.3826,2.3819,2.3818,2.388,2.3881,2.3882,2.3851,2.3849,2.3846,2.3844,2.3899,2.3903,2.3908,2.3979,0,0,2.3921,2.3923,0,0,0,0,0,0,0,0,2.3749,2.3756,2.3819,2.3819,2.3819,2.3856,2.3855,2.3914,2.3852,2.3839,2.3846,2.3843,2.3888,2.3893,2.3908,2.3982,2.3984,2.3921,2.3924,2.3926,2.3927,0,0,0,0,0,0,0,2.3745,2.3754,2.3848,2.382,2.382,2.3812,2.3818,2.3866,2.3875,2.384,2.3837,2.3844,2.3888,2.3904,2.3909,2.3985,2.3921,2.3925,2.3927,2.3929,2.4119,2.4121,0,0,0,0,0,0,2.3741,2.3751,2.3846,2.3849,2.3778,2.3816,2.3822,2.3847,2.3875,2.3877,2.3846,2.3843,2.3898,2.3904,2.3911,2.3996,2.3926,2.393,2.3932,2.4116,2.4119,2.4122,0,0,0,0,0,0,2.3739,2.375,2.3844,2.38,2.3811,2.3821,2.3848,2.3849,2.3865,2.388,2.3881,2.3861,2.3896,2.3905,2.3962,2.3997,2.3932,2.3935,2.4113,2.4117,2.412,2.4167,0,0,0,0,0,0,2.3735,2.375,2.3777,2.38,2.3813,2.3895,2.3851,2.3852,2.3873,2.3869,2.3894,2.3896,2.3895,2.3956,2.3966,2.4002,2.3939,2.411,2.4115,2.4119,2.4162,2.4172,2.418,0,0,0,0,0,2.3731,2.3789,2.3779,2.3791,2.3848,2.3897,2.3904,2.3901,2.3876,2.3903,2.3912,2.3896,2.3992,2.3962,2.3974,2.4011,2.4108,2.4114,2.4119,2.4158,2.417,2.418,0,0,0,0,0,0,2.377,2.3792,2.3781,2.3848,2.3871,2.3891,2.3926,2.3914,2.3944,2.3939,2.3934,2.3941,2.4,2.4011,2.3978,2.4081,2.4046,2.4054,2.4072,2.4083,2.4091,2.4087,2.3942,0,0,0,0,0,2.3787,2.3824,2.3841,2.3899,2.3911,2.3917,2.3938,2.3933,2.3956,2.3966,2.3979,2.4002,2.4037,2.4061,2.4094,2.4163,2.4168,2.4195,2.4204,2.4211,2.4218,2.4254,2.4265,2.414,2.414,2.414,0,0,2.3822,2.3838,2.3862,2.3907,2.3924,2.3962,2.3925,2.3968,2.3996,2.3972,2.4027,2.4037,2.4062,2.4126,2.4154,2.4137,2.4253,2.4218,2.4223,2.4227,2.4261,2.4272,2.4283,2.4144,2.4143,2.4142,0,0,2.3904,2.3921,2.397,2.3987,2.4013,2.4016,2.4028,2.405,2.4056,2.411,2.4093,2.4126,2.4187,2.4205,2.4223,2.431,2.4295,2.4321,2.4367,2.4402,2.4412,2.4421,2.4451,2.4462,2.4328,2.4328,2.4328,0,2.3944,2.4002,2.3997,2.4041,2.406,2.404,2.4089,2.4106,2.4142,2.4155,2.4135,2.421,2.4226,2.4293,2.4314,2.4329,2.4341,2.4318,2.4411,2.4419,2.4428,2.4456,2.4468,2.4331,2.4331,2.433,2.433,0,2.4049,2.4089,2.4125,2.4159,2.4183,2.4229,2.4231,2.4256,2.4249,2.4254,2.4309,2.4326,2.4362,2.4378,2.4372,2.4443,2.4431,2.4411,2.4375,2.4442,2.4469,2.448,2.4335,2.4334,2.4333,2.4333,0,0,2.416,2.4189,2.4202,2.4216,2.4242,2.4273,2.4317,2.4352,2.4373,2.4397,2.4434,2.4485,2.4466,2.4486,2.4481,2.4512,2.4579,2.4488,2.4489,2.4504,2.4656,2.4671,2.4684,2.4569,2.4571,2.4573,2.4654,0,2.4243,2.4321,2.4317,2.439,2.4426,2.4406,2.4445,2.4464,2.447,2.4501,2.4507,2.4543,2.4516,2.4527,2.4557,2.4564,2.4609,2.4558,2.4602,2.4604,2.4596,2.4698,2.4714,2.479,2.4665,2.4666,2.4668,0,2.4352,2.4379,2.4455,2.4474,2.4489,2.4524,2.4554,2.4584,2.4605,2.4607,2.4628,2.4618,2.4662,2.4625,2.4685,2.4651,2.4668,2.4674,2.4677,2.4681,2.464,2.4704,2.4815,2.4826,2.4684,2.4683,2.4682,0,2.4423,2.4479,2.4531,2.4544,2.4568,2.4593,2.4604,2.4623,2.4643,2.4669,2.4682,2.4713,2.4731,2.4755,2.4753,2.4726,2.4814,2.4777,2.4816,2.4816,2.4835,2.4834,2.4949,2.4847,2.4847,2.4847,2.4847,0,2.4517,2.4564,2.4564,2.4596,2.4648,2.4642,2.4693,2.4702,2.4718,2.4751,2.4736,2.4767,2.4764,2.4795,2.4794,2.4843,2.4851,2.4853,2.4852,2.4854,2.4854,2.4865,2.486,2.485,2.4849,2.4849,2.4848,0,2.4606,2.4608,2.4663,2.4681,2.4686,2.4723,2.4737,2.4767,2.4771,2.4813,2.4822,2.4828,2.4863,2.4864,2.4905,2.4904,2.4964,2.4957,2.4957,2.4955,2.4994,2.499,2.512,2.5137,2.5025,2.5026,2.5026,0,2.4666,2.4701,2.4722,2.4742,2.4755,2.4788,2.4809,2.4804,2.4826,2.4851,2.4878,2.4912,2.4939,2.4996,2.5004,2.5035,2.5028,2.5072,2.5033,2.5033,2.5028,2.5026,2.5029,2.508,2.5081,2.5082,2.5083,0,2.4771,2.4769,2.4799,2.4829,2.4853,2.4877,2.4898,2.4916,2.4913,2.4938,2.4974,2.4995,2.5036,2.5069,2.5099,2.5109,2.5096,2.5095,2.5105,2.5108,2.5105,2.5106,2.4977,2.5092,2.5091,2.509,2.509,2.5089,2.4847,2.4877,2.4895,2.4928,2.4944,2.4964,2.4992,2.4999,2.5028,2.5061,2.5056,2.5096,2.5115,2.5152,2.5165,2.5196,2.5181,2.5196,2.52,2.5204,2.5207,2.5101,2.5201,2.5201,2.5201,2.5201,2.52,0,2.495,2.4961,2.4991,2.5021,2.5047,2.5031,2.5053,2.5076,2.5111,2.5129,2.5155,2.5196,2.5227,2.5237,2.5267,2.529,2.5284,2.5298,2.5296,2.5298,2.522,2.5207,2.5302,2.5302,2.5302,2.5302,2.5302,2.5302,2.5007,2.5056,2.5057,2.5113,2.5123,2.5162,2.5176,2.5194,2.5208,2.5254,2.528,2.5285,2.53,2.5331,2.5359,2.5361,2.5372,2.5389,2.5388,2.5314,2.5304,2.5294,2.5283,2.5392,2.5392,2.5464,2.5465,2.5465]}]]